Simultaneous Nadir Overpasses (SNOs) Predictions

Prediction of SNOs between AQUA and LANDSAT-8 Satellite Orbit:

Table of predicted SNOs for the next 14.0 days since TLE Epoch: 3/8/2025
Index Date (AQUA) Time (AQUA) Lat,Lon (AQUA) SZA (AQUA ) Date (LANDSAT-8) Time (LANDSAT-8) Lat,Lon (LANDSAT-8) SZA (LANDSAT-8 ) Distance(km) Time Diff (sec)
1 03/12/2025 14:53:53 -74.48, 143.06 102.51 03/12/2025 14:52:46 -74.43, 140.78 102.59 68.18 67
2 03/12/2025 15:43:16 74.67, -49.74 77.66 03/12/2025 15:42:07 74.65, -51.04 77.63 38.10 69
3 03/12/2025 16:32:39 -74.91, 117.31 102.12 03/12/2025 16:31:29 -74.94, 117.33 102.09 3.71 70
4 03/12/2025 17:21:59 74.94, -75.11 77.90 03/12/2025 17:20:55 74.91, -75.11 77.86 3.72 64
5 03/12/2025 18:11:17 -74.93, 92.60 102.13 03/12/2025 18:10:22 -74.94, 92.61 102.12 1.69 55
6 03/12/2025 19:00:37 74.96, -99.82 77.89 03/12/2025 18:59:47 74.96, -99.69 77.89 3.65 50
7 03/12/2025 19:49:55 -74.95, 67.90 102.14 03/12/2025 19:49:15 -74.95, 67.90 102.14 0.34 40
8 03/12/2025 20:39:14 74.93,-124.40 77.84 03/12/2025 20:38:40 74.97,-124.41 77.87 3.46 34
9 03/12/2025 21:28:33 -74.97, 43.19 102.15 03/12/2025 21:28:08 -74.95, 43.18 102.17 2.37 25
10 03/12/2025 22:17:52 74.96,-149.10 77.83 03/12/2025 22:17:33 74.97,-149.13 77.84 1.51 19
11 03/12/2025 23:07:11 -74.99, 18.48 102.15 03/12/2025 23:07:00 -75.00, 18.60 102.14 3.61 11
12 03/12/2025 23:56:30 74.98,-173.81 77.82 03/12/2025 23:56:26 74.97,-173.84 77.82 1.05 4
13 03/13/2025 00:45:49 -75.01, -6.23 102.16 03/13/2025 00:45:53 -75.00, -6.12 102.17 3.32 4
14 03/13/2025 01:35:08 75.00, 161.48 77.82 03/13/2025 01:35:19 74.97, 161.44 77.79 2.92 11
15 03/13/2025 02:24:26 -74.98, -30.81 102.22 03/13/2025 02:24:46 -75.00, -30.84 102.19 2.83 20
16 03/13/2025 03:13:46 75.02, 136.77 77.81 03/13/2025 03:14:11 75.02, 136.86 77.82 2.78 25
17 03/13/2025 04:03:04 -75.00, -55.52 102.22 03/13/2025 04:03:39 -75.01, -55.55 102.22 1.20 35
18 03/13/2025 04:52:24 75.04, 112.06 77.80 03/13/2025 04:53:04 75.03, 112.14 77.79 2.81 40
19 03/13/2025 05:41:42 -75.02, -80.23 102.23 03/13/2025 05:42:32 -75.01, -80.27 102.24 1.84 50
20 03/13/2025 06:31:01 75.01, 87.48 77.75 03/13/2025 06:31:57 75.03, 87.43 77.77 2.71 56
21 03/13/2025 07:20:20 -75.04,-104.94 102.24 03/13/2025 07:21:24 -75.06,-104.85 102.21 3.24 64
22 03/13/2025 08:09:39 75.03, 62.77 77.74 03/13/2025 08:10:50 75.03, 62.71 77.74 1.71 71
23 03/13/2025 08:59:03 -75.31,-130.34 102.00 03/13/2025 09:00:12 -75.31,-128.89 101.98 40.69 69
24 03/13/2025 09:48:28 75.60, 36.51 78.27 03/13/2025 09:49:33 75.53, 39.37 78.25 79.51 65



Historial Predications of SNOs between AQUA and LANDSAT-8
